This is the latest recevied weather packets stored in our database for station/object KB9HUO. If no packets are shown the sender has not sent any weather packets the latest 10 day(s).
| Time | Temp. | Humidity | Pressure | Rain* | Wind** | Luminosity | Snow |
|---|---|---|---|---|---|---|---|
| 1788042010 | 27.78° C | 67% | 1020.4 hPa | 0 mm | - | 65 W/m² | - |
| 1788041706 | 27.78° C | 68% | 1020.4 hPa | 0 mm | - | 68 W/m² | - |
| 1788041400 | 27.78° C | 64% | 1020.3 hPa | 0 mm | - | 71 W/m² | - |
| 1788041099 | 27.78° C | 66% | 1020.3 hPa | 0 mm | - | 69 W/m² | - |
| 1788040798 | 27.78° C | 64% | 1020.4 hPa | 0 mm | - | 65 W/m² | - |
| 1788040492 | 28.33° C | 63% | 1020.5 hPa | 0 mm | - | 59 W/m² | - |
| 1788040189 | 28.33° C | 61% | 1020.4 hPa | 0 mm | - | 59 W/m² | - |
| 1788039887 | 28.33° C | 61% | 1020.4 hPa | 0 mm | - | 54 W/m² | - |
| 1788039582 | 28.89° C | 59% | 1020.6 hPa | 0 mm | - | 49 W/m² | - |
| 1788039278 | 28.89° C | 60% | 1020.5 hPa | 0 mm | - | 47 W/m² | - |
| 1788038973 | 28.89° C | 60% | 1020.5 hPa | 0 mm | - | 51 W/m² | - |
| 1788038668 | 29.44° C | 56% | 1020.5 hPa | 0 mm | - | 62 W/m² | - |
| 1788038367 | 29.44° C | 61% | 1020.4 hPa | 0 mm | - | 77 W/m² | - |
| 1788038063 | 28.89° C | 54% | 1020.5 hPa | 0 mm | - | 89 W/m² | - |
| 1788037763 | 28.89° C | 56% | 1020.6 hPa | 0 mm | - | 98 W/m² | - |
| 1788037458 | 28.89° C | 55% | 1020.4 hPa | 0 mm | - | 110 W/m² | - |
| 1788037157 | 28.89° C | 54% | 1020.3 hPa | 0 mm | - | 115 W/m² | - |
| 1788036857 | 28.89° C | 53% | 1020.4 hPa | 0 mm | - | 109 W/m² | - |
| 1788036554 | 28.89° C | 60% | 1020.4 hPa | 0 mm | - | 101 W/m² | - |
| 1788036254 | 28.89° C | 57% | 1020.6 hPa | 0 mm | - | 93 W/m² | - |
| 1788035950 | 29.44° C | 56% | 1020.6 hPa | 0 mm | - | 83 W/m² | - |
| 1788035650 | 29.44° C | 51% | 1020.6 hPa | 0 mm | - | 87 W/m² | - |
| 1788035345 | 29.44° C | 53% | 1020.7 hPa | 0 mm | - | 92 W/m² | - |
| 1788035040 | 29.44° C | 52% | 1021 hPa | 0 mm | - | 105 W/m² | - |
| 1788034736 | 28.89° C | 52% | 1020.8 hPa | 0 mm | - | 148 W/m² | - |
* Rain latest hour (hover to see other rain measurements)
** Current wind speed in m/s (hover to see current wind gust speed)